{"data":{"norad_id":63601,"epoch":"2026-09-21T22:47:22.562016Z","epoch_age_seconds":82391,"freshness":"FRESH","line1":"1 63601U 25078C   26264.94956669  .00000004  00000+0  67115-4 0  9999","line2":"2 63601  99.6950 270.8110 0000840  86.5012 273.6223 13.57247164 70663","mean_motion":13.57247164,"eccentricity":8.4e-5,"inclination_deg":99.695,"raan_deg":270.811,"arg_perigee_deg":86.5012,"mean_anomaly_deg":273.6223,"bstar":6.7115e-5,"rev_number":7066,"period_min":106.09710877981,"perigee_km":1045.0898142591,"apogee_km":1046.3370211292,"semimajor_km":7423.8504176942,"source":"CELESTRAK","updated_at":"2026-09-22T09:00:29.238359Z"}}